Terminal Aerodrome Forecast
Issued by NWS Paducah, KY

Home | Current Version | Previous Version | Text Only | Print | Product List | Glossary Off
Versions: 1 2 3 4 5 6 7 8 9 10 11 12 13 14 15 16 17 18 19

000
FTUS43 KPAH 232109 AAD
TAFEVV
TAF AMD
KEVV 232109Z 2321/2418 34003KT P6SM VCTS BKN025CB
      TEMPO 2321/2323 2SM +TSRA BR OVC015CB
     FM240000 30008KT P6SM BKN045
     FM240300 33005KT P6SM BKN200=

USA.gov is the U.S. government's official web portal to all federal, state and local government web resources and services.